Location: ?????
(55.6500°N, 37.2500°E)
Time: 10:36:52
(UTC+00:00)

Cosmos 923 Rocket - Pass Details

Date: 19 May 2025
Orbit: 755 x 781 km, 74.0° (Epoch: 13 June)

Event Time Altitude Azimuth Distance (km) Brightness Sun altitude
Exits shadow 22:27:17 15° 224° (SW) 1,997 5.6 -13.3°
Maximum altitude 22:31:39 62° 303° (WNW) 877 4.4 -13.2°
Drops below altitude 10° 22:36:57 10° 24° (NNE) 2,344 8.0 -12.9°
Sets 22:39:22 0° 28° (NNE) 3,272 9.1 -12.8°
